Juneau, AK

8:42 AM AKDT on April 27, 2017 (GMT -0800)
Juneau International

Weather History for PAJN - September, 2013

Change the Weather History Date:

Sunday, September 1, 2013

  Actual Average Record
Temperature  
Mean Temperature 56 °F 53 °F  
Max Temperature 57 °F 60 °F 70 °F (1951)
Min Temperature 55 °F 46 °F 29 °F (1941)
Degree Days  
Heating Degree Days 9 12  
Month to date heating degree days 9 12  
Since 1 July heating degree days 444 547  
Cooling Degree Days 0 0  
Month to date cooling degree days 0 0  
Year to date cooling degree days 9 2  
Growing Degree Days 6 (Base 50)    
Moisture  
Dew Point 55 °F    
Average Humidity 97    
Maximum Humidity 100    
Minimum Humidity 93    
Precipitation  
Precipitation 0.52 in 0.25 in 1.89 in (2006)
Month to date precipitation 0.52 0.25  
Year to date precipitation 41.43 33.42  
Sea Level Pressure  
Sea Level Pressure 29.86 in    
Wind  
Wind Speed 10 mph (East)    
Max Wind Speed 15 mph    
Max Gust Speed 19 mph    
Visibility 6 miles    
Events Fog , Rain    
T = Trace of Precipitation, MM = Missing Value Source: NWS Daily Summary

Daily Weather History Graph

Daily Weather History Graph

Search for Another Location

Airport or City:

Trip Planner

Search our weather history database for the weather conditions in past years. The results will help you decide how hot, cold, wet, or windy it might be!

Date:

Astronomy

Sep. 01, 2013 Rise Set
Actual Time 5:58 AM AKDT 7:56 PM AKDT
Civil Twilight 5:15 AM AKDT 8:38 PM AKDT
Nautical Twilight 4:21 AM AKDT 9:32 PM AKDT
Astronomical Twilight 3:15 AM AKDT 10:37 PM AKDT
Moon 1:55 AM AKDT (9/1) 6:03 PM AKDT (9/1)
Length of Visible Light 15h 22m
Length of Day
13h 58m
Waning Crescent, 13% of the Moon is Illuminated
Sep 1
Waning Crescent
Sep 5
New
Sep 12
First Quarter
Sep 19
Full
Sep 26
Last Quarter

Hourly Weather History & Observations

Time (AKDT) Temp. Dew Point Humidity Pressure Visibility Wind Dir Wind Speed Gust Speed Precip Events Conditions
12:53 AM 55.9 °F 55.0 °F 97% 29.91 in 5.0 mi East 10.4 mph - 0.21 in Rain Rain
1:53 AM 55.9 °F 55.0 °F 97% 29.90 in 6.0 mi ESE 10.4 mph - 0.11 in Rain Light Rain
2:53 AM 55.9 °F 55.0 °F 97% 29.88 in 8.0 mi East 9.2 mph - 0.09 in Rain Light Rain
3:53 AM 55.9 °F 55.0 °F 97% 29.87 in 8.0 mi East 8.1 mph - 0.05 in Rain Light Rain
4:53 AM 55.9 °F 55.0 °F 97% 29.86 in 6.0 mi East 8.1 mph - 0.11 in Rain Light Rain
5:53 AM 55.9 °F 55.0 °F 97% 29.85 in 10.0 mi East 9.2 mph - 0.02 in Rain Light Rain
6:53 AM 55.0 °F 54.0 °F 96% 29.84 in 3.0 mi East 10.4 mph - 0.07 in Rain Light Rain
7:53 AM 55.9 °F 54.0 °F 93% 29.84 in 6.0 mi East 13.8 mph - 0.03 in Rain Light Rain
8:53 AM 55.9 °F 55.0 °F 97% 29.83 in 9.0 mi East 12.7 mph - 0.01 in Rain Light Rain
9:53 AM 55.9 °F 55.0 °F 97% 29.83 in 8.0 mi East 11.5 mph - 0.00 in Rain Light Rain
10:53 AM 55.9 °F 55.0 °F 97% 29.83 in 8.0 mi East 11.5 mph - 0.00 in Rain Light Rain
11:53 AM 55.9 °F 55.0 °F 97% 29.83 in 8.0 mi East 12.7 mph - 0.00 in   Overcast
12:53 PM 55.9 °F 55.0 °F 97% 29.84 in 10.0 mi ENE 9.2 mph - 0.00 in   Overcast
1:53 PM 57.0 °F 55.0 °F 93% 29.84 in 9.0 mi ENE 11.5 mph - 0.00 in   Overcast
2:53 PM 57.0 °F 55.0 °F 93% 29.84 in 10.0 mi ENE 11.5 mph - 0.00 in   Overcast
3:53 PM 57.0 °F 55.0 °F 93% 29.84 in 10.0 mi East 12.7 mph - 0.03 in Rain Light Rain
4:53 PM 57.0 °F 55.0 °F 93% 29.84 in 9.0 mi East 12.7 mph - 0.01 in Rain Light Rain
5:53 PM 57.0 °F 55.0 °F 93% 29.84 in 6.0 mi ENE 8.1 mph - 0.06 in Rain Light Rain
6:12 PM 57.0 °F 55.0 °F 93% 29.84 in 2.5 mi ENE 8.1 mph - 0.02 in Rain Rain
6:31 PM 55.9 °F 55.0 °F 97% 29.85 in 1.8 mi ENE 6.9 mph - 0.13 in Rain Heavy Rain
6:53 PM 57.0 °F 55.0 °F 93% 29.86 in 1.2 mi NNE 3.5 mph - 0.21 in Rain Heavy Rain
7:07 PM 55.9 °F 55.0 °F 97% 29.85 in 2.0 mi NE 5.8 mph - 0.13 in Rain Heavy Rain
7:31 PM 55.9 °F 55.9 °F 100% 29.85 in 2.0 mi East 5.8 mph - 0.36 in Rain Heavy Rain
7:44 PM 57.0 °F 55.0 °F 93% 29.86 in 1.5 mi ENE 6.9 mph - 0.44 in Rain Light Rain
7:53 PM 55.9 °F 55.9 °F 100% 29.86 in 1.8 mi East 5.8 mph - 0.46 in Rain Rain
8:15 PM 55.9 °F 55.0 °F 97% 29.86 in 4.0 mi East 6.9 mph - 0.03 in Rain Light Rain
8:53 PM 55.0 °F 54.0 °F 96% 29.86 in 10.0 mi Calm Calm - 0.04 in   Overcast
9:41 PM 55.0 °F 55.0 °F 100% 29.87 in 10.0 mi East 4.6 mph - N/A   Overcast
9:53 PM 55.0 °F 54.0 °F 96% 29.87 in 10.0 mi East 5.8 mph - N/A Fog Patches of Fog
10:08 PM 55.0 °F 54.0 °F 96% 29.87 in 9.0 mi ENE 5.8 mph - N/A Fog Patches of Fog
10:23 PM 55.0 °F 55.0 °F 100% 29.87 in 10.0 mi East 4.6 mph - N/A Fog Patches of Fog
10:53 PM 55.0 °F 55.0 °F 100% 29.88 in 10.0 mi East 4.6 mph - N/A Fog Patches of Fog
11:33 PM 54.0 °F 54.0 °F 100% 29.89 in 2.0 mi East 6.9 mph - N/A   Overcast
11:35 PM 54.0 °F 54.0 °F 100% 29.89 in 7.0 mi East 8.1 mph - N/A Fog Patches of Fog
11:43 PM 54.0 °F 54.0 °F 100% 29.89 in 3.0 mi ESE 11.5 mph - N/A   Overcast
11:53 PM 54.0 °F 53.1 °F 97% 29.90 in 4.0 mi East 10.4 mph - N/A   Overcast